Regional Weather Roundup
Issued by NWS

Home | Current Version | Previous Version | Graphics & Text | Print | Product List | Glossary On
Versions: 1 2 3 4 5 6 7 8 9 10 11 12 13 14 15 16 17 18 19 20 21 22 23 24 25 26 27 28 29 30 31 32 33 34 35 36 37 38 39 40 41 42 43 44 45 46 47 48 49 50
000
ASUS43 KLOT 242309
RWRIL

ILLINOIS REGIONAL WEATHER ROUNDUP
NATIONAL WEATHER SERVICE CHICAGO/ROMEOVILLE IL
600 PM CDT WED MAY 24 2017

NOTE: "FAIR" INDICATES FEW OR NO CLOUDS BELOW 12,000 FEET WITH NO
SIGNIFICANT WEATHER AND/OR OBSTRUCTIONS TO VISIBILITY.

* THESE STATIONS ARE NOT UNDER NWS QUALITY CONTROL. THEY ALSO MAY NOT
  REPORT WEATHER SUCH AS PRECIPITATION OR FOG.

ILZ001-002-007-009-015-016-024-250000-
NORTHWEST ILLINOIS

CITY           SKY/WX    TMP DP  RH WIND       PRES   REMARKS
MOLINE         CLOUDY    63  51  65 N10       29.60S
STERLING*      CLOUDY    58  54  86 N10       29.61R
SAVANNA*       CLOUDY    60  51  72 N7        29.61F
$$

ILZ003-004-008-010-011-017-018-250000-
NORTH CENTRAL ILLINOIS

CITY           SKY/WX    TMP DP  RH WIND       PRES   REMARKS
ROCKFORD       CLOUDY    60  53  77 N14       29.61R
FREEPORT*      CLOUDY    56  51  85 N12       29.63S
ROCHELLE*      CLOUDY    58  54  87 N13       29.59S
DE KALB*       CLOUDY    59  53  79 N14       29.59S
PERU*          CLOUDY    58  53  82 N17       29.57S
$$

ILZ005-006-012>014-019>023-250000-
NORTHEAST ILLINOIS

CITY           SKY/WX    TMP DP  RH WIND       PRES   REMARKS
CHICAGO-OHARE  CLOUDY    60  50  69 N21       29.55S
CHICAGO-MIDWAY LGT RAIN  56  51  84 N18       29.55S
AURORA         CLOUDY    62  54  74 N14       29.56S
LANSING*       RAIN      51  51  99 N9        29.55F
JOLIET*        CLOUDY    62  55  77 NE8       29.55S
WAUKEGAN       CLOUDY    58  50  75 N15G23    29.56R
DUPAGE AIRPORT CLOUDY    61  54  77 N14       29.55R
KANKAKEE*      DRIZZLE   58  55  89 NE5       29.54S
WHEELING       CLOUDY    59  52  77 N16G30    29.57S
MORRIS*        CLOUDY    62  53  73 CALM      29.54R
ROMEOVILLE*    DRIZZLE   59  55  86 NE16      29.55S
NORTHERLY ISL    N/A     51  48  89 N18         N/A
$$

LMZ740>746-250000-
SOUTHERN LAKE MICHIGAN

STATION/POSITION SKY/WX   TEMP    WIND        PRES    VSBY  WAVE
                          AIR SEA DIR/SP/G                  HT/PER
                          (F)     (DEG/KT/KT) (MB)    (MI)  (FT/S)
SOUTHERN BUOY              48 45   10/ 17/ 19 1000.1          4/ 5
WILMETTE HARBOR            48 53                N/A           6/ 5
HARRISON CRIB              50     350/ 23/ 26   N/A
BURNHAM HARBOR             51     340/ 13/ 20   N/A
CALUMET HARBOR             51     350/ 12/ 19 1000.7
BURNS HARBOR               51     320/ 12/ 14 1000.7F
MICHIGAN CITY              50     290/ 14/ 15   N/A
MICHIGAN CITY 6N           50 54  310/ 14/ 17   N/A           4/ 5
ST. JOSEPH                 57 56  160/  8/ 10  999.5          4/ 5
$$

ILZ025>027-034>036-040-047-049-050-058-095>099-250000-
WEST-CENTRAL ILLINOIS

CITY           SKY/WX    TMP DP  RH WIND       PRES   REMARKS
QUINCY         CLOUDY    59  52  77 NW10      29.59S
GALESBURG*     CLOUDY    60  52  77 N13       29.59S
MACOMB*        CLOUDY    61  53  75 N12       29.61R
JACKSONVILLE*  PTSUNNY   61  53  75 N17       29.56R
PITTSFIELD*    PTSUNNY   62  52  71 N12G18    29.59S
$$

ILZ028>032-037-038-041>044-048-051>054-059>061-250000-
CENTRAL ILLINOIS

CITY           SKY/WX    TMP DP  RH WIND       PRES   REMARKS
PONTIAC        CLOUDY    62  57  84 N9        29.54S
BLOOMINGTON    CLOUDY    60  55  83 N15       29.54S
DECATUR        CLOUDY    61  55  81 N16G24    29.52R
PEORIA         CLOUDY    60  54  80 N9G20     29.57R
LACON*         CLOUDY    59  55  87 N8        29.57S
LINCOLN*       CLOUDY    64  56  76 N12G18    29.54S
SPRINGFIELD    LGT RAIN  61  57  87 NW8       29.55R FOG
TAYLORVILLE    LGT RAIN  60  56  86 NW7       29.53R
$$

ILZ033-039-045-046-055>057-062-063-250000-
EAST-CENTRAL ILLINOIS

CITY           SKY/WX    TMP DP  RH WIND       PRES   REMARKS
CHAMPAIGN      CLOUDY    61  55  81 N14       29.50S
RANTOUL*       CLOUDY    62  57  84 N13       29.51R
MATTOON        CLOUDY    59  57  93 N15       29.49S
PARIS*         CLOUDY    60  57  89 N7        29.49R
$$

ILZ079-100>102-250000-
SOUTHWEST ILLINOIS

CITY           SKY/WX    TMP DP  RH WIND       PRES   REMARKS
ALTON          PTSUNNY   64  52  63 NW17G26   29.56R
BELLEVILLE     PTSUNNY   67  50  55 NW7       29.55S
CAHOKIA*       CLOUDY    66  48  52 N6        29.55R
SPARTA*        MOSUNNY   64  48  57 NW10      29.55S
$$

ILZ064>066-069>071-074>076-080>082-084>086-088>090-092>094-250000-
SOUTH-CENTRAL ILLINOIS

CITY           SKY/WX    TMP DP  RH WIND       PRES   REMARKS
CARBONDALE     CLOUDY    65  50  58 NW10      29.53S
CAIRO*         PTSUNNY   66  49  53 NW13      29.54S
EFFINGHAM*     RAIN      61  58  91 W5        29.52S
MARION         PTSUNNY   63  55  77 N9        29.54R
MT. VERNON       N/A     60  57  89 CALM      29.53R
CENTRALIA*     CLOUDY    65  52  64 NW8       29.51S
SALEM*         LGT RAIN  63  55  75 NW5       29.52S
METROPOLIS*    MOSUNNY   66  49  54 W9        29.53S
$$

ILZ067-068-072-073-078-083-087-091-250000-
SOUTHEAST ILLINOIS

CITY           SKY/WX    TMP DP  RH WIND       PRES   REMARKS
LAWRENCEVILLE  CLOUDY    59  57  93 NW13      29.47S
FLORA*         RAIN      62  57  86 NW5       29.51S
FAIRFIELD*     DRIZZLE   61  55  80 CALM      29.50S
HARRISBURG*    CLOUDY    64  54  69 N8        29.52R
ROBINSON*      DRIZZLE   58  56  93 NW13      29.48S
CARMI*         RAIN      60  57  90 W6        29.51S
$$

ABBREVIATIONS USED IN REMARKS
   TC - TEMPERATURE IN CELSIUS
  WCI - WIND CHILL INDEX
   HX - HEAT INDEX
  VSB - VISIBILITY
$$





USA.gov is the U.S. government's official web portal to all federal, state and local government web resources and services.